This is the latest recevied weather packets stored in our database for station/object EA1BVF-10. If no packets are shown the sender has not sent any weather packets the latest 10 day(s).
| Time | Temp. | Humidity | Pressure | Rain* | Wind** | Luminosity | Snow |
|---|---|---|---|---|---|---|---|
| 1787439702 | 16.67° C | 94% | 1032.7 hPa | - | - | - | - |
| 1787439697 | 16.67° C | 94% | 1032.7 hPa | - | - | - | - |
| 1787437897 | 16.67° C | 95% | 1032.9 hPa | - | - | - | - |
| 1787436097 | 16.67° C | 94% | 1032.8 hPa | - | - | - | - |
| 1787434296 | 16.67° C | 95% | 1032.9 hPa | - | - | - | - |
| 1787432722 | 16.67° C | 96% | 1032.9 hPa | - | - | - | - |
| 1787432497 | 16.67° C | 96% | 1032.9 hPa | - | - | - | - |
| 1787430696 | 16.67° C | 97% | 1032.9 hPa | - | - | - | - |
| 1787428896 | 16.67° C | 96% | 1032.8 hPa | - | - | - | - |
| 1787427096 | 17.22° C | 95% | 1032.7 hPa | - | - | - | - |
| 1787425296 | 16.67° C | 96% | 1032.4 hPa | - | - | - | - |
| 1787423496 | 16.67° C | 95% | 1032.5 hPa | - | - | - | - |
| 1787421696 | 16.67° C | 94% | 1032.7 hPa | - | - | - | - |
| 1787419896 | 16.67° C | 94% | 1032.7 hPa | - | - | - | - |
| 1787418285 | 16.67° C | 93% | 1032.7 hPa | - | - | - | - |
| 1787418096 | 16.67° C | 93% | 1032.7 hPa | - | - | - | - |
| 1787416296 | 16.67° C | 92% | 1032.7 hPa | - | - | - | - |
| 1787414496 | 16.67° C | 92% | 1032.8 hPa | - | - | - | - |
| 1787412855 | 16.11° C | 93% | 1032.8 hPa | - | - | - | - |
| 1787412695 | 16.11° C | 93% | 1032.8 hPa | - | - | - | - |
| 1787410896 | 16.11° C | 93% | 1032.6 hPa | - | - | - | - |
| 1787409095 | 16.11° C | 93% | 1032.6 hPa | - | - | - | - |
| 1787407295 | 15.56° C | 93% | 1032.6 hPa | - | - | - | - |
| 1787405495 | 15.56° C | 94% | 1032.6 hPa | - | - | - | - |
| 1787403695 | 15° C | 94% | 1032.7 hPa | - | - | - | - |
* Rain since midnight (hover to see other rain measurements)
** Current wind speed in m/s (hover to see current wind gust speed)